User: anonymous   Login
Location: Austin
(30.3000°N, 97.7500°W)
Time: 22:43:21
(UTC-05:00)
Language:

NOSS 0 Rocket - Orbit

View from above orbital plane
View from above orbital plane
View from above satellite
View from above satellite

Ground track
Ground track

The orbit data is extracted from the following two-line orbital elements,

1 05679U 71110B   23277.37995758  .00000072  00000-0  10792-3 0  9992
2 05679  69.9948 272.7616 0015411 296.0253  63.9260 13.85459644232668
Epoch (UTC): 04 October 2023 09:07:08
Eccentricity: 0.0015411
inclination: 69.9948°
perigee height: 933 km
apogee height: 956 km
right ascension of ascending node: 272.7616°
argument of perigee: 296.0253°
revolutions per day: 13.85459644
mean anomaly at epoch: 63.9260°
orbit number at epoch: 23266

The dashed part of the orbit path shows where the satellite is in the earth's shadow,  

DLR